Regional Weather Roundup
Issued by NWS

Home | Current Version | Previous Version | Graphics & Text | Print | Product List | Glossary Off
Versions: 1 2 3 4 5 6 7 8 9 10 11 12 13 14 15 16 17 18 19 20 21 22 23 24 25 26 27 28 29 30 31 32 33 34 35 36 37 38 39 40 41 42 43 44 45 46 47 48 49 50

000
ASUS43 KTOP 211059
RWRKS

WEATHER ROUNDUP FOR KANSAS
NATIONAL WEATHER SERVICE GOODLAND KS
500 AM CST SUN DEC 21 2014

NOTE:  "FAIR" INDICATES FEW OR NO CLOUDS BELOW 12,000 FEET WITH NO
SIGNIFICANT WEATHER AND/OR OBSTRUCTIONS TO VISIBILITY.

KSZ001>006-013>018-027>032-041>047-211200-
NORTHWEST KANSAS

CITY           SKY/WX    TMP DP  RH WIND       PRES   REMARKS
GOODLAND       CLOUDY    33  29  85 CALM      29.82F
HAYS           CLOUDY    30  23  74 S6        29.92F VSB 1
HILL CITY      MOCLDY    30  28  92 SW5       29.88F
RUSSELL        FOG       35  35 100 SW14      29.92F VSB 1/2 WCI  26
$$

KSZ061>065-074>080-084>089-211200-
SOUTHWEST KANSAS

CITY           SKY/WX    TMP DP  RH WIND       PRES   REMARKS
DODGE CITY     CLOUDY    38  36  92 S14       29.91F FOG     WCI  30
ELKHART          N/A    N/A N/A N/A MISG        N/A
GARDEN CITY      N/A     31  31 100 S9        29.88F VSB 1/4
GREAT BEND     CLOUDY    37  34  87 S10       29.95F WCI  30
LIBERAL        CLOUDY    36  32  87 S12       29.89F WCI  27
$$

KSZ066>073-081>083-090>101-211200-
SOUTHEAST KANSAS

CITY           SKY/WX    TMP DP  RH WIND       PRES   REMARKS
CHANUTE        CLOUDY    40  38  93 SW16      30.07F WCI  31
COFFEYVILLE    CLOUDY    41  38  89 S8        30.08F
HUTCHINSON     CLOUDY    40  37  89 S13       29.99F FOG     WCI  32
MEDICINE LODGE   N/A     39  39 100 S8        29.98F
NEWTON         CLOUDY    39  34  81 S13       30.00F WCI  32
PARSONS        CLOUDY    42  38  85 SW10      30.08F
WICHITA INTL   CLOUDY    42  36  79 S14       30.00F
WICHITA JABRA  CLOUDY    40  36  86 S12       29.99F WCI  33
WINFIELD       CLOUDY    40  37  89 S10       30.04F WCI  33
$$

KSZ007>012-019>026-033>040-048>060-102>105-211200-
NORTHEAST KANSAS

CITY           SKY/WX    TMP DP  RH WIND       PRES   REMARKS
CONCORDIA      CLOUDY    36  35  96 S14       29.93F WCI  27
EMPORIA        CLOUDY    38  37  97 S8        30.03F
LAWRENCE       CLOUDY    37  33  85 S8        30.06F
MANHATTAN      PTCLDY    38  35  89 SW7       29.99F
OLATHE IND     CLOUDY    36  34  92 S8        30.07F
OLATHE EXE     CLOUDY    36  35  96 S7        30.06F FOG
SALINA         CLOUDY    40  37  89 S10       29.98F WCI  33
TOPEKA BILLARD CLOUDY   N/A N/A N/A S8        30.04F
TOPEKA FORBES  CLOUDY    39  35  86 S9        30.03F
$$



USA.gov is the U.S. government's official web portal to all federal, state and local government web resources and services.